www.pogodaiklimat.ru

Погода и климат >> Архив погоды >> Кувейт >> Остров Файлака


ПОГОДА Остров Файлака

  • Прогноз погоды Остров Файлака
  • Монитор погоды Остров Файлака

АРХИВ ПОГОДЫ Остров Файлака

Время (UTC), дата Ветер
(напр.,м/с)
 
Видим.   Явления Облачность Т
(С)
Тd
(С)
f
(%)
Тe
(С)
Тes
(С)
Комфортность P
(гПа)
Po
(гПа)
Тmin
(С)
Tmax
(С)
R
(мм)
R24
(мм)
S
(см)
18 13.07 СЗ 7-9
{14}
н/о н/о +37.3 +13.4 24 +38 +38 душно 998.5 998.0
21 13.07 СЗ 6-8
{12}
н/о н/о +34.2 +15.6 33 +36 +36 душно 999.0 998.4 +31.3 +45.1
00 14.07 СЗ 5-5
{12}
н/о н/о +30.3 +16.1 42 +33 +33 душно 998.7 998.1
03 14.07 З 6-8
{9}
н/о н/о +31.1 +14.2 36 +33 +33 душно 1000.0 999.4
06 14.07 СЗ 6-8
{9}
н/о н/о +37.7 +12.7 22 +37 +37 очень
жарко
1000.9 1000.3
09 14.07 З 7-10
{11}
н/о н/о +41.9 +11.8 17 +41 +41 опасность
перегрева
999.9 999.4
12 14.07 СЗ 5-8
{11}
н/о н/о +42.3 +10.7 15 +41 +41 опасность
перегрева
998.1 997.6
15 14.07 С 5-7
{9}
н/о н/о +37.5 +18.2 32 +41 +41 опасность
перегрева
998.0 997.5
18 14.07 СЗ 5-6
{9}
н/о н/о +35.2 +15.9 32 +37 +37 очень
душно
999.3 998.7
21 14.07 СЗ 5-6
{9}
н/о н/о +32.9 +17.4 40 +37 +37 очень
душно
998.8 998.2 +28.3 +43.5
00 15.07 СЗ 5-6
{9}
н/о н/о +31.0 +16.4 41 +34 +34 душно 998.2 997.6
03 15.07 СЗ 4-6
{8}
н/о н/о +31.2 +15.9 40 +34 +34 душно 999.0 998.4
06 15.07 СЗ 8-10
{10}
н/о н/о +37.5 +15.0 26 +39 +39 очень
душно
999.4 998.9
09 15.07 СЗ 9-12
{13}
н/о н/о +42.5 +15.8 21 +44 +44 опасность
перегрева
998.5 998.0
12 15.07 СЗ 9-11
{13}
н/о н/о +42.0 +12.6 18 +42 +42 опасность
перегрева
996.7 996.2
15 15.07 С 6-8
{13}
н/о н/о +36.8 +19.2 36 +42 +42 опасность
перегрева
996.3 995.8
18 15.07 СЗ 6-8
{13}
н/о н/о +34.9 +17.0 35 +38 +38 очень
душно
997.0 996.4
21 15.07 СЗ 6-8
{9}
н/о н/о +33.1 +13.1 30 +34 +34 очень
жарко
996.3 995.7 +28.6 +44.1
00 16.07 СЗ 8-10
{10}
н/о н/о +32.6 +13.5 31 +34 +34 очень
жарко
995.4 994.8
03 16.07 СЗ 7-9
{11}
н/о н/о +31.6 +13.6 33 +33 +33 жарко 996.4 995.8
06 16.07 СЗ 8-12
{12}
н/о н/о +38.7 +14.5 24 +39 +39 душно 996.6 996.1
09 16.07 С 11-14
{19}
н/о н/о +41.9 +17.4 24 +44 +44 опасность
перегрева
996.0 995.5
12 16.07 СЗ 11-16
{19}
н/о н/о +42.6 +14.7 20 +43 +43 опасность
перегрева
995.1 994.6
15 16.07 СЗ 9-13
{15}
н/о н/о +38.0 +14.8 25 +39 +39 очень
душно
995.4 994.9
18 16.07 СЗ 7-9
{15}
н/о н/о +34.6 +15.1 31 +36 +36 душно 997.2 996.6
21 16.07 СЗ 8-10
{11}
н/о н/о +34.0 +15.2 32 +36 +36 душно 997.4 996.8 +30.7 +44.2
00 17.07 З 5-6
{11}
н/о н/о +30.8 +15.7 40 +33 +33 душно 997.0 996.4
03 17.07 СЗ 6-8
{8}
н/о н/о +30.7 +13.2 34 +32 +32 жарко 998.1 997.5
06 17.07 СЗ 7-10
{10}
н/о н/о +35.1 +13.9 28 +36 +36 очень
жарко
999.4 998.8
09 17.07 СЗ 12-16
{16}
н/о н/о +41.3 +16.3 23 +43 +43 опасность
перегрева
998.1 997.6
12 17.07 СЗ 8-11
{16}
н/о н/о +41.7 +14.8 21 +43 +43 опасность
перегрева
997.4 996.9
15 17.07 СЗ 8-11
{12}
н/о н/о +37.0 +17.1 31 +40 +40 очень
душно
997.6 997.1
18 17.07 СЗ 6-8
{12}
н/о н/о +34.6 +15.7 32 +37 +37 очень
душно
999.0 998.4
21 17.07 З 5-7
{7}
н/о н/о +31.7 +17.5 43 +36 +36 очень
душно
998.6 998.0 +29.9 +43.1
00 18.07 З 6-8
{8}
н/о н/о +30.4 +17.4 46 +34 +34 очень
душно
997.9 997.3
03 18.07 З 7-9
{9}
н/о н/о +30.8 +15.0 38 +33 +33 душно 998.3 997.7
06 18.07 З 8-10
{11}
н/о н/о +36.4 +14.6 27 +37 +37 очень
жарко
998.4 997.8
09 18.07 С 7-10
{12}
н/о н/о +41.1 +18.5 27 +45 +45 опасность
перегрева
997.3 996.8
12 18.07 С 9-13
{16}
н/о н/о +42.7 +16.3 22 +45 +45 опасность
перегрева
995.4 994.9
15 18.07 С 6-11
{13}
н/о н/о +38.4 +17.4 29 +41 +41 опасность
перегрева
995.9 995.4
18 18.07 СЗ 6-8
{13}
н/о н/о +36.8 +14.9 27 +38 +38 очень
душно
997.0 996.5
21 18.07 СЗ 9-12
{12}
н/о н/о +35.3 +14.6 29 +37 +37 очень
душно
996.1 995.5 +29.2 +43.6
00 19.07 С 9-12
{14}
н/о н/о +33.8 +16.1 35 +36 +36 очень
душно
996.4 995.8
03 19.07 СЗ 8-11
{12}
н/о н/о +32.7 +14.8 34 +34 +34 очень
жарко
997.3 996.7
06 19.07 С 8-12
{12}
н/о н/о +36.4 +16.8 31 +39 +39 очень
душно
997.9 997.3
09 19.07 С 10-14
{17}
н/о н/о +41.0 +19.7 29 +46 +46 опасность
перегрева
997.8 997.3
12 19.07 СЗ 10-13
{17}
н/о н/о +41.2 +16.3 24 +43 +43 опасность
перегрева
996.4 995.9
15 19.07 С 8-10
{15}
н/о н/о +36.9 +17.3 32 +40 +40 очень
душно
996.9 996.4
18 19.07 СЗ 7-8
{15}
н/о н/о +34.9 +13.6 28 +36 +36 душно 998.4 997.8
21 19.07 З 5-6
{9}
н/о н/о +31.7 +17.8 44 +36 +36 очень
душно
998.5 997.9 +31.7 +42.8
00 20.07 СЗ 8-10
{11}
н/о н/о +33.2 +14.2 32 +35 +35 душно 998.3 997.7
03 20.07 СЗ 8-10
{11}
н/о н/о +32.3 +15.6 37 +35 +35 очень
душно
999.3 998.7
06 20.07 СЗ 8-11
{11}
н/о н/о +36.0 +16.6 32 +39 +39 очень
душно
1000.3 999.7
09 20.07 С 7-9
{12}
н/о н/о +40.8 +18.0 27 +44 +44 опасность
перегрева
1000.0 999.5
12 20.07 С 7-9
{12}
н/о н/о +42.0 +16.3 23 +44 +44 опасность
перегрева
998.2 997.7
15 20.07 СЗ 5-6
{9}
н/о н/о +37.6 +18.5 33 +42 +42 опасность
перегрева
998.1 997.6

 

Местоположение метеостанции Остров Файлака (Кувейт): широта 29.47 долгота 48.28 высота над уровнем моря 5 м.

В архиве по умолчанию представлена погода Остров Файлака за последнюю неделю. Архивные данные за месяц целиком и за предыдущие месяцы, начиная с января 2011 года, Вы можете получить, выбрав интересующий диапазон дат из раскрывающегося списка и нажав кнопку "Ввод!".


*Определитесь, кто Вы:
робот инопланетянин человек

Внимание! Время в таблицах - всемирное. Для получения местного времени необходимо прибавить поправку, которая равна 3 ч.

Смотрите также архив погоды в соседних городах и на ближайших метеорологических станциях:

Погода в Аль-Шуаиба (Кувейт) (22 км)
Погода в Кувейт Сити (Кувейт) (27 км)
Погода на Бубияне (Кувейт) (35 км)
Погода на Экспериментальной ферме (Кувейт) (39 км)
Погода в Эль-Кувейте (Кувейт) (41 км)
Погода на Метеостанции Sabriyah (Кувейт) (52 км)
Погода в Сулайбии (Кувейт) (59 км)
Погода в Эль-Фао (Ирак) (61 км)
Погода в Эль-Джахра (Кувейт) (61 км)
Погода в Порту Juluiah (Кувейт) (67 км)

Пояснения к столбцам:

Ветер - указаны скорость ветра в м/с - средняя за 10 мин, порывы в срок и между сроками (в фигурных скобках) и направление, откуда дует ветер: С - северный, СВ - северо-восточный, В - восточный, ЮВ - юго-восточный, Ю - южный, ЮЗ - юго-западный, З - западный, СЗ - северо-западный.
Видимость - горизонтальная дальность видимости в метрах или километрах. При видимости от 1 до 10 км при отсутствии осадков обычно наблюдается дымка, при ухудшении видимости до 1 км и менее - туман. В сухую погоду видимость может ухудшаться дымом, пылью или мглою.
Явления - указаны атмосферные явления, наблюдавшиеся в срок или в последний час перед сроком; фигурными скобками обозначены явления, наблюдавшиеся между сроками (за 1-3 часа до срока); квадратными скобками обозначены град или гололедные отложения с указанием их диаметра в мм.
Облачность - указаны через наклонную черту общая и нижняя облачность в баллах и высота нижней границы облаков в метрах; квадратными скобками обозначены формы облаков: Ci - перистые, Cs - перисто-слоистые, Cc - перисто-кучевые, Ac - высококучевые, As - высокослоистые, Sc - слоисто-кучевые, Ns - слоисто-дождевые, Cu - кучевые, Cb - кучево-дождевые. Подробнее классификацию облаков см. в Атласе облаков (PDF).
T - Температура воздуха - температура, измеренная на высоте 2 м над землей.
Td - Температура точки росы - температура, при понижении до которой содержащийся в воздухе водяной пар достигнет насыщения.
f - Относительная влажность воздуха - влажноcть воздуха, измеренная на высоте 2 м над землей.
Te - Эффективная температура - температура, которую ощущает одетый по сезону человек в тени. Характеристика душности погоды. При расчете учитывается влияние влажности воздуха и скорости ветра на теплоощущения человека.
Tes - Эффективная температура на солнце - температура, которую ощущает человек, с поправкой на солнечный нагрев. Характеристика знойности погоды. Зависит от высоты солнца над горизонтом, облачности и скорости ветра. Ночью, в пасмурную погоду, а также при ветре 12 м/с и более поправка равна нулю.
P - Атмосферное давление - приведенное к уровню моря атмосферное давление.
Po - Атмосферное давление - измеренное на уровне метеостанции атмосферное давление.
Tmin - Минимальная температура - минимум температуры воздуха на высоте 2 м над землей.
Tmax - Максимальная температура - максимум температуры воздуха на высоте 2 м над землей.
R - Количество осадков - Количество выпавших осадков за период времени, мм. При наведении курсора мыши на число - период времени, за который выпало указанное количество осадков.
R24 - Количество осадков - Количество выпавших осадков за 24 часа, мм.
S - Снежный покров - Высота снежного покрова, см. При наведении курсора мыши на число - состояние снежного покрова и степень покрытия местности в баллах.